Flag for Germany Weather past 2 weeks in Wittlich, Rhineland-Palatinate, Germany

Now
68 °F

Scattered clouds.


Feels Like: 68 °F
Forecast: 57 / 76 °F
Wind: 13 mph from Northwest

Location: Spangdahlem

Current Time: Jul 30, 2014 at 2:09:09 PM

Latest Report: Jul 30, 2014 at 1:02 PM


Visibility: N/A

Pressure: 29.93 "Hg

Humidity: 73%

Dew point: 59 °F

Location of WittlichLocation

Historic Weather in Wittlich — Graph

°F

Wittlich temperature yesterday

Maximum temperature yesterday: 73 °F (at 2:58 PM)
Minimum temperature yesterday: 63 °F (at 12:59 AM)
Average temperature yesterday: 66 °F

Past Weeks' High & Low Weather Summary

 TemperatureHumidityPressure
High88 °F (Jul 19, 2:58 PM)100% (Jul 21, 5:58 AM)30.22 "Hg (Jul 21, 5:58 AM)
Low55 °F (Jul 26, 6:58 AM)33% (Jul 18, 3:58 PM)29.59 "Hg (Jul 16, 2:58 PM)
Average69 °F73%29.93 "Hg
* Reported Jul 15 12:58 PM — Jul 30 12:58 PM, Wittlich, Weather by CustomWeather, © 2014

Note: Actual official high and low records may vary slightly from our data, if they occured in-between our weather recording intervals... More about our weather records

Advertising

Wittlich weather history for previous 24 hours

 ConditionsComfort  
Time TempWeatherWind HumidityBarometerVisibility
12:58 PM
Jul 30
68 °FBroken clouds.10 mph73%29.87 "HgN/A
11:58 AM66 °FPartly sunny.9 mph78%29.86 "HgN/A
10:58 AM64 °FOvercast.6 mph83%29.85 "HgN/A
9:58 AM63 °FOvercast.6 mph88%29.84 "HgN/A
9:02 AM63 °FOvercast.6 mph88%29.88 "HgN/A
8:58 AM63 °FOvercast.6 mph92%29.82 "HgN/A
7:58 AM63 °FPartly sunny.8 mph94%29.81 "HgN/A
7:02 AM64 °FFog.2 mph94%29.85 "Hg4 mi
6:04 AM64 °FFog.2 mph94%29.84 "Hg4 mi
5:58 AM64 °FLight rain. Fog.2 mph94%29.78 "Hg6 mi
4:58 AM63 °FLight rain. Fog.3 mph94%29.78 "Hg6 mi
3:58 AM63 °FLight rain. Clear.5 mph93%29.77 "HgN/A
2:58 AM63 °FLight rain. Clear.2 mph94%29.77 "HgN/A
1:58 AM63 °FRain. Fog.3 mph94%29.78 "HgN/A
12:59 AM63 °FHeavy rain. Fog.7 mph94%29.85 "Hg6 mi
12:04 AM66 °FLight rain. Passing clouds.6 mph88%29.84 "HgN/A
11:58 PM
Jul 29
66 °FPassing clouds.7 mph88%29.78 "HgN/A
10:58 PM67 °FPassing clouds.6 mph89%29.77 "HgN/A
9:58 PM68 °FPartly sunny.3 mph83%29.77 "HgN/A
8:58 PM68 °FBroken clouds.5 mph88%29.77 "HgN/A
8:03 PM70 °FFog.2 mph88%29.81 "Hg1 mi
7:59 PM70 °FFog.2 mph88%29.81 "Hg2 mi
6:58 PM70 °FSunny.2 mph88%29.75 "HgN/A
5:58 PM70 °FLight rain. Sunny.2 mph88%29.75 "HgN/A
5:03 PM66 °FThunderstorms. Fog.5 mph88%29.82 "Hg3 mi
4:59 PM66 °FThunderstorms. Fog.3 mph88%29.81 "Hg1 mi
4:04 PM73 °FPartly sunny.5 mph74%29.81 "HgN/A
3:58 PM73 °FLight rain. Partly sunny.7 mph74%29.75 "HgN/A
2:58 PM73 °FPassing clouds.10 mph75%29.77 "HgN/A
Weather by CustomWeather, © 2014

See weather overviewHow to use our weather pages